Regional Weather Roundup
Issued by NWS Midland/Odessa, TX

Skip options and go directly to product.
Home | Oldest Version | Previous Version | Current Version | All | Text Only | Save Text | Print | Product List | Glossary Off

Skip product version selection by date and time.   

516
ASUS44 KMAF 290001
RWRMAF
MIDLAND AREA WEATHER ROUNDUP
NATIONAL WEATHER SERVICE MIDLAND TX
700 PM CDT TUE JUN 28 2016

...IN SOUTHWEST TEXAS AND SOUTHEAST NEW MEXICO...

CITY           SKY/WX    TMP DP  RH WIND       PRES   REMARKS
ALPINE         CLOUDY    77  61  57 CALM      30.25F
ANDREWS        FAIR      88  59  36 W3        30.13F
ARTESIA        CLOUDY    86  61  42 SW14      30.15F
BIG SPRING     CLOUDY    80  61  52 E12       30.14F
CARLSBAD       PTSUNNY   83  59  44 SW10      30.12F
DRYDEN           N/A     92  63  38 NE15      30.02F
FORT STOCKTON  MOSUNNY   88  58  36 E12       30.09F
GUAD PASS      CLOUDY    71  58  63 NE18      30.28F
HOBBS          SUNNY     86  52  30 E9        30.17F
MARFA          CLOUDY   N/A N/A N/A NE15      30.22F
MIDLAND AIRPK  LGT RAIN  81  66  60 SE9G16    30.13R
MIDLAND INTL   MOSUNNY   85  60  42 E18       30.12S THUNDER
ODESSA         SUNNY     90  58  33 SE5       30.12F
PECOS          MOSUNNY   89  60  38 NE12      30.08F
PRESIDIO       DRIZZLE   77  69  76 NW5       30.06F
SEMINOLE       CLOUDY    88  55  33 E13G18    30.15F
SNYDER           N/A     80  67  64 SE7       30.11F
WINK           PTSUNNY   88  60  38 E7        30.08F
$$
...OTHER STATIONS IN TEXAS...

CITY           SKY/WX    TMP DP  RH WIND       PRES   REMARKS
ABILENE        CLOUDY    76  72  87 CALM      30.08F
AMARILLO       MOSUNNY   89  51  27 SE7       30.14F
AUSTIN         LGT RAIN  75  72  90 NE7       30.04R
BROWNSVILLE    SUNNY     88  75  65 SE12      29.93R
CORPUS CHRISTI PTSUNNY   91  74  57 SE12      29.93R HX 100
DALLAS FTW     PTSUNNY   93  68  43 NE13      29.98S
DEL RIO        SUNNY     97  60  29 SE7       29.92F
EL PASO        CLOUDY    78  60  53 E10       30.14F
HOUSTON INT    CLOUDY    79  72  79 N5        29.96F
LUBBOCK        PTSUNNY   90  58  33 S13       30.12F
SAN ANGELO     SUNNY     84  68  58 NE14G23   30.09R
SAN ANTONIO    LGT RAIN  80  69  69 NE13G28   30.04R
WACO           CLOUDY    75  66  73 SW9       30.02F
WICHITA FALLS  NOT AVBL
$$
...OTHER LOCATIONS IN NEW MEXICO...

CITY           SKY/WX    TMP DP  RH WIND       PRES   REMARKS
ALAMAGORDO     MOSUNNY   82  57  42 NE3       30.17F
ALBUQUERQUE    MOSUNNY   90  39  16 E15       30.21S
CANNON AFB     SUNNY     88  54  31 SE7       30.19S
CLOVIS         SUNNY     88  52  29 E3        30.19F
HOLLOMAN AFB   MOSUNNY   83  55  37 S13       30.14F
ROSWELL        MOSUNNY   89  55  31 SW13      30.13F
RUIDOSO        LGT RAIN  72  52  49 S12       30.39F
SANTA FE       MOSUNNY   87  38  17 S13G21    30.29F
TRUTH OR CONSE PTSUNNY   80  60  50 S14       30.19F
TUCUMCARI      SUNNY     92  45  19 SE9       30.15F
$$

USA.gov is the U.S. government's official web portal to all federal, state and local government web resources and services.